Regional Weather Roundup
Issued by NWS

Home | Current Version | Previous Version | Graphics & Text | Print | Product List | Glossary On
Versions: 1 2 3 4 5 6 7 8 9 10 11 12 13 14 15 16 17 18 19 20 21 22 23 24 25 26 27 28 29 30 31 32 33 34 35 36 37 38 39 40 41 42 43 44 45 46 47 48 49 50
000
ASUS45 KCYS 260510
RWRWY

WYOMING REGIONAL WEATHER ROUNDUP
NATIONAL WEATHER SERVICE CHEYENNE WY
1100 PM MDT FRI JUL 25 2014

NOTE:  "FAIR" INDICATES FEW OR NO CLOUDS BELOW 12,000 FEET
WITH NO SIGNIFICANT WEATHER AND/OR OBSTRUCTIONS TO VISIBILITY.

WYZ001-260600-
YELLOWSTONE NATIONAL PARK

CITY           SKY/WX    TMP DP  RH WIND       PRES   REMARKS
LK YELLOWSTONE   N/A     44  30  57 NW3       30.29S
W YELLOWSTONE  NOT AVBL

$$
WYZ002>013-054>058-071-098>099-260600-
NORTHERN WYOMING

CITY           SKY/WX    TMP DP  RH WIND       PRES   REMARKS
JACKSON        CLEAR     54  25  32 E3        30.18R
CODY           NOT AVBL
GREYBULL       CLOUDY    77  27  15 NW14      29.94R
WORLAND        CLEAR     70  33  25 NW6       29.97R
SHERIDAN       CLEAR     66  37  34 W10       30.01R
BUFFALO        CLEAR     70  35  27 NW13      30.07R
GILLETTE       CLEAR     65  48  54 N3        29.98R
HULETT         FAIR      66  50  55 MISG      29.97
NEWCASTLE      FAIR      72  45  37 N9        29.91

$$
WYZ014>020-022>026-101>103-260600-
CENTRAL WYOMING

CITY           SKY/WX    TMP DP  RH WIND       PRES   REMARKS
BIG PINEY      CLEAR     54  28  36 E6        30.24R
PINEDALE       CLEAR     55  32  41 CALM      30.25S
DUBOIS         FAIR      59  25  27 NW10      30.21S
LANDER         PTCLDY    72  24  16 W10       30.07R
RIVERTON       PTCLDY    70  29  21 NW13      30.08R
CASPER         CLEAR     69  33  26 NW12      30.03R
DOUGLAS        CLEAR     64  52  64 CALM      29.96R

$$
WYZ021-027>030-104>119-260600-
SOUTHERN WYOMING

CITY           SKY/WX    TMP DP  RH WIND       PRES   REMARKS
EVANSTON       CLEAR     71  30  21 CALM      30.24R
KEMMERER       CLEAR     61  28  29 N10       30.25R
FORT BRIDGER   FAIR      68  27  21 W6        30.26R
ROCK SPRINGS   PTCLDY    71  23  16 N12       30.18S
DIXON          FAIR      63  44  50 CALM      30.25S
RAWLINS        CLEAR     71  40  32 W13       30.20R
SARATOGA       FAIR      63  45  51 S7        30.24R
LARAMIE        PTCLDY    66  42  41 SW23G30   30.21R
CHEYENNE       MOCLDY    68  54  60 SW14      30.12S
TORRINGTON     PTCLDY    67  57  70 E6        29.92S
PINE BLUFFS    FAIR      64  54  68 S10       30.05F

$$



USA.gov is the U.S. government's official web portal to all federal, state and local government web resources and services.